< < Back
Terminal Aerodrome Forecast


Current Version              Previous Versions:   1  2  3  4  5  6  7  8  9  

Terminal Aerodrome Forecast

712
FTUS42 KMLB 210500
TAFDAB
TAF
KDAB 210531Z 2106/2206 VRB03KT P6SM SCT250
     FM211700 08009KT P6SM SCT040 SCT250
     FM212200 12007KT P6SM FEW040 FEW250=

Latest METAR

889
SAUS80 KWBC 211600 RRC
MTRDAB
METAR KDAB 211553Z 33004KT 10SM SCT035 SCT250 33/24 A3012 RMK AO2 SLP200
T03330239


USA.gov is the U.S. government's official web portal to all federal, state and local government web resources and services.